Location: Veytaux
(46.4185°N, 6.9320°E)
Time: 07:31:46
(UTC+00:00)

Cosmos 1606 Rocket - Pass Details

Date: 27 May 2022
Orbit: 601 x 632 km, 82.5° (Epoch: 02 July)

Event Time Altitude Azimuth Distance (km) Brightness Sun altitude
Rises 02:44:06 0° 345° (NNW) 2,915 7.5 -9.3°
Reaches altitude 10° 02:46:24 10° 340° (NNW) 1,999 6.5 -9.0°
Maximum altitude 02:50:38 46° 267° (W) 832 3.9 -8.5°
Drops below altitude 10° 02:54:48 10° 194° (SSW) 1,964 5.6 -8.0°
Enters shadow 02:56:08 - 190° (S) 2,489 6.2 -7.8°
